Content
SEND FEEDBACK

Daily
Averages
Monthly
Summary
United States of America

FOXBORO, MASSACHUSETTS


Home > North America > United States > Massachusetts
Elevation: 140 feet     Latitude: 42 03N     Longitude: 071 12W

WEATHER
 
SELECT A DAY
Number of Records: 209,575;   Date Range: 1/1/95 - 9/29/14
 
SHARE

PRINT THIS DATA

[ ← Previous Day ]
WEATHER ALMANAC - JANUARY 31, 2013
[ Next Day → ]
[ °C ]   °F
Weather ElementAverageHighLow
Temperature49.9 °F61 °F (4:53 am)32 °F (11:53 pm)
Dewpoint22 °F57.2 °F (1:34 am) (7:00 pm)
Humidity60.5 %94 % (8:28 am)33 % (3:53 pm)
Barometer29.27 in29.60 in (11:53 pm)28.99 in (8:53 am)
Wind Speed19 mph29.9 mph (5:53 am)
Wind Gust44.9 mph (10:03 am)
Weather ElementAverage
Visibility7.5 mi
Wind DirectionWSW (239 °)

Weather ElementTotal
Precipitation0.63 in
Heating Degree Days18.5 (Base 65)
Averaged from 30 records on January 31, 2013
WEATHER CONDITIONS BREAKOUT
WIND DIRECTION BREAKOUT
WEATHER BY HOUR - JANUARY 31, 2013
[ °C ]   °F
Local TimeTemperatureDewpointHumidityBarometerVisibilityWind DirectionWind SpeedGust SpeedPrecipitationEventsConditions
1:34 AM60.8 °F57.2 °F88 %29.37 in4.0 miSouth (190°)21.9 mph33.4 mph0.01 inRainLight Rain
1:43 AM60.8 °F0.0 °F29.37 in5.0 miSouth (180°)21.9 mph40.3 mph0.01 inRainLight Rain
1:53 AM60.1 °F0.0 °F29.35 in5.0 miSouth (190°)19.6 mph33.4 mph0.01 inHaze
2:40 AM59.0 °F0.0 °F29.31 in4.0 miSouth (190°)23.0 mph39.1 mph0.01 inRainLight Rain
2:51 AM59.0 °F0.0 °F29.30 in3.0 miSouth (190°)27.6 mph36.8 mph0.02 inOvercast
2:53 AM59.0 °F0.0 °F29.29 in3.0 miSSW (200°)20.7 mph36.8 mph0.02 inOvercast
3:53 AM60.1 °F0.0 °F29.21 in4.0 miSSW (200°)25.3 mph43.7 mph0.01 inHaze
4:53 AM61.0 °F0.0 °F29.15 in5.0 miSouth (190°)19.6 mph38.0 mph0.04 inRainLight Rain
5:53 AM60.1 °F0.0 °F29.06 in4.0 miSouth (180°)29.9 mph42.6 mph0.17 inRainLight Rain
6:53 AM60.1 °F0.0 °F29.08 in8.0 miSSW (200°)19.6 mph35.7 mph0.17 inRainLight Rain
7:53 AM59.0 °F55.9 °F90 %29.03 in6.0 miSouth (180°)15.0 mph21.9 mph0.03 inRainLight Rain
8:28 AM57.2 °F55.4 °F94 %29.01 in4.0 miSSW (200°)16.1 mph25.3 mph0.04 inRainLight Rain
8:53 AM57.0 °F54.0 °F89 %28.99 in10.0 miSSW (200°)15.0 mph31.1 mph0.04 inOvercast
9:53 AM57.0 °F52.0 °F83 %29.04 in10.0 miWest (280°)13.8 mph25.3 mphMostly Cloudy
10:03 AM46.4 °F42.8 °F87 %29.09 in5.0 miWest (280°)28.8 mph44.9 mph0.01 inHaze
10:14 AM46.4 °F41.0 °F81 %29.10 in5.0 miWNW (290°)23.0 mph41.4 mph0.02 inRainLight Rain
10:53 AM48.0 °F41.0 °F77 %29.14 in10.0 miWest (260°)18.4 mph26.5 mph0.02 inMostly Cloudy
11:53 AM48.0 °F36.0 °F63 %29.17 in10.0 miWest (270°)18.4 mph29.9 mphOvercast
12:53 PM46.0 °F32.0 °F58 %29.20 in10.0 miWest (280°)21.9 mph29.9 mphMostly Cloudy
1:53 PM45.0 °F25.0 °F46 %29.24 in10.0 miWest (280°)20.7 mph35.7 mphMostly Cloudy
2:53 PM44.1 °F21.0 °F40 %29.29 in10.0 miWest (280°)16.1 mph27.6 mphScattered Clouds
3:53 PM45.0 °F17.1 °F33 %29.33 in10.0 miWest (280°)13.8 mph27.6 mphPartly Cloudy
4:53 PM42.1 °F17.1 °F37 %29.36 in10.0 miWest (270°)11.5 mphOvercast
5:53 PM41.0 °F17.1 °F38 %29.42 in10.0 miWNW (290°)12.7 mph23.0 mphMostly Cloudy
6:53 PM39.9 °F16.0 °F38 %29.46 in10.0 miWest (280°)17.3 mph29.9 mphOvercast
7:53 PM37.9 °F16.0 °F41 %29.49 in10.0 miWest (270°)18.4 mph25.3 mphOvercast
8:53 PM37.0 °F12.9 °F37 %29.52 in10.0 miWest (270°)17.3 mph25.3 mphOvercast
9:53 PM35.1 °F17.1 °F48 %29.56 in10.0 miWest (270°)18.4 mph28.8 mphOvercast
10:53 PM34.0 °F16.0 °F48 %29.59 in10.0 miWest (270°)13.8 mph23.0 mphMostly Cloudy
11:53 PM32.0 °F17.1 °F54 %29.60 in10.0 miWest (260°)9.2 mph18.4 mphMostly Cloudy
Hourly data recorded from KOWD, located miles away from Foxboro, Massachusetts







STORIES FROM OUR PARTNERS